User: anonymous   Login
Location: Columbia
(38.9520°N, 92.3340°W)
Time: 16:29:24
(UTC-06:00)
Language:

Iridium 15 - Orbit

View from above orbital plane
View from above orbital plane
View from above satellite
View from above satellite

Ground track
Ground track

The orbit data is extracted from the following two-line orbital elements,

1 24869U 97034A   15026.51811969  .00000099  00000-0  28462-4 0  2432
2 24869 086.3948 026.5845 0002226 106.1052 005.9355 14.34216593918830
Epoch (UTC): 26 January 2015 12:26:05
Eccentricity: 0.0002226
inclination: 86.3948°
perigee height: 776 km
apogee height: 779 km
right ascension of ascending node: 26.5845°
argument of perigee: 106.1052°
revolutions per day: 14.34216593
mean anomaly at epoch: 5.9355°
orbit number at epoch: 91883

The dashed part of the orbit path shows where the satellite is in the earth's shadow,  

DLR